Year,Month,Day,Hour,Minute,Value (Times are PST for temperature in C)
2008,07,18,00,00,12.70
2008,07,18,00,01,12.60
2008,07,18,00,02,12.60
2008,07,18,00,03,12.60
2008,07,18,00,04,12.60
2008,07,18,00,05,12.60
2008,07,18,00,06,12.60
2008,07,18,00,07,12.60
2008,07,18,00,09,12.50
2008,07,18,00,10,12.50
2008,07,18,00,11,12.50
2008,07,18,00,12,12.50
2008,07,18,00,13,12.50
2008,07,18,00,14,12.40
2008,07,18,00,15,12.40
2008,07,18,00,16,12.40
2008,07,18,00,17,12.40
2008,07,18,00,18,12.40
2008,07,18,00,19,12.40
2008,07,18,00,20,12.40
2008,07,18,00,21,12.40
2008,07,18,00,22,12.40
2008,07,18,00,23,12.40
2008,07,18,00,24,12.40
2008,07,18,00,25,12.40
2008,07,18,00,26,12.40
2008,07,18,00,27,12.40
2008,07,18,00,28,12.40
2008,07,18,00,29,12.40
2008,07,18,00,30,12.30
2008,07,18,00,31,12.30
2008,07,18,00,32,12.30
2008,07,18,00,33,12.30
2008,07,18,00,34,12.30
2008,07,18,00,35,12.30
2008,07,18,00,36,12.30
2008,07,18,00,37,12.30
2008,07,18,00,38,12.30
2008,07,18,00,39,12.30
2008,07,18,00,40,12.30
2008,07,18,00,41,12.30
2008,07,18,00,42,12.20
2008,07,18,00,43,12.20
2008,07,18,00,44,12.20
2008,07,18,00,45,12.20
2008,07,18,00,46,12.20
2008,07,18,00,47,12.20
2008,07,18,00,48,12.20
2008,07,18,00,49,12.20
2008,07,18,00,50,12.20
2008,07,18,00,51,12.20
2008,07,18,00,52,12.20
2008,07,18,00,53,12.20
2008,07,18,00,54,12.20
2008,07,18,00,55,12.20
2008,07,18,00,56,12.20
2008,07,18,00,57,12.20
2008,07,18,00,58,12.10
2008,07,18,00,59,12.10
2008,07,18,01,01,12.10
2008,07,18,01,03,12.10
2008,07,18,01,04,12.10
2008,07,18,01,05,12.10
2008,07,18,01,06,12.10
2008,07,18,01,07,12.10
2008,07,18,01,08,12.10
2008,07,18,01,09,12.10
2008,07,18,01,10,12.10
2008,07,18,01,11,12.10
2008,07,18,01,12,12.10
2008,07,18,01,13,12.10
2008,07,18,01,14,12.10
2008,07,18,01,15,12.10
2008,07,18,01,16,12.10
2008,07,18,01,17,12.00
2008,07,18,01,18,12.00
2008,07,18,01,19,12.00
2008,07,18,01,20,12.00
2008,07,18,01,21,12.00
2008,07,18,01,22,12.00
2008,07,18,01,23,12.00
2008,07,18,01,24,12.00
2008,07,18,01,25,12.00
2008,07,18,01,26,12.00
2008,07,18,01,27,12.00
2008,07,18,01,28,12.00
2008,07,18,01,29,11.90
2008,07,18,01,30,11.90
2008,07,18,01,31,11.90
2008,07,18,01,32,11.90
2008,07,18,01,33,11.90
2008,07,18,01,34,11.90
2008,07,18,01,35,11.90
2008,07,18,01,36,11.90
2008,07,18,01,37,11.90
2008,07,18,01,38,11.90
2008,07,18,01,39,11.90
2008,07,18,01,40,11.90
2008,07,18,01,41,11.80
2008,07,18,01,42,11.90
2008,07,18,01,43,11.80
2008,07,18,01,44,11.80
2008,07,18,01,45,11.80
2008,07,18,01,46,11.80
2008,07,18,01,47,11.80
2008,07,18,01,48,11.80
2008,07,18,01,49,11.80
2008,07,18,01,50,11.80
2008,07,18,01,51,11.80
2008,07,18,01,52,11.80
2008,07,18,01,53,11.80
2008,07,18,01,54,11.80
2008,07,18,01,55,11.80
2008,07,18,01,56,11.80
2008,07,18,01,57,11.80
2008,07,18,01,58,11.80
2008,07,18,01,59,11.80
2008,07,18,02,01,11.80
2008,07,18,02,02,11.80
2008,07,18,02,03,11.80
2008,07,18,02,04,11.80
2008,07,18,02,05,11.80
2008,07,18,02,06,11.80
2008,07,18,02,07,11.80
2008,07,18,02,08,11.80
2008,07,18,02,09,11.80
2008,07,18,02,10,11.70
2008,07,18,02,11,11.70
2008,07,18,02,12,11.70
2008,07,18,02,13,11.70
2008,07,18,02,14,11.70
2008,07,18,02,15,11.70
2008,07,18,02,16,11.70
2008,07,18,02,17,11.70
2008,07,18,02,18,11.70
2008,07,18,02,19,11.70
2008,07,18,02,20,11.70
2008,07,18,02,21,11.70
2008,07,18,02,22,11.70
2008,07,18,02,23,11.70
2008,07,18,02,24,11.70
2008,07,18,02,25,11.70
2008,07,18,02,26,11.70
2008,07,18,02,27,11.70
2008,07,18,02,28,11.70
2008,07,18,02,29,11.70
2008,07,18,02,31,11.60
2008,07,18,02,32,11.60
2008,07,18,02,33,11.60
2008,07,18,02,34,11.60
2008,07,18,02,35,11.60
2008,07,18,02,36,11.60
2008,07,18,02,37,11.60
2008,07,18,02,38,11.60
2008,07,18,02,39,11.60
2008,07,18,02,40,11.60
2008,07,18,02,41,11.60
2008,07,18,02,42,11.60
2008,07,18,02,43,11.60
2008,07,18,02,44,11.60
2008,07,18,02,45,11.60
2008,07,18,02,46,11.60
2008,07,18,02,47,11.50
2008,07,18,02,48,11.60
2008,07,18,02,49,11.60
2008,07,18,02,50,11.50
2008,07,18,02,52,11.50
2008,07,18,02,53,11.50
2008,07,18,02,54,11.50
2008,07,18,02,55,11.50
2008,07,18,02,56,11.50
2008,07,18,02,57,11.50
2008,07,18,02,58,11.50
2008,07,18,02,59,11.50
2008,07,18,03,00,11.50
2008,07,18,03,01,11.50
2008,07,18,03,02,11.50
2008,07,18,03,03,11.50
2008,07,18,03,04,11.50
2008,07,18,03,05,11.50
2008,07,18,03,06,11.50
2008,07,18,03,07,11.50
2008,07,18,03,08,11.40
2008,07,18,03,09,11.40
2008,07,18,03,10,11.40
2008,07,18,03,11,11.40
2008,07,18,03,12,11.40
2008,07,18,03,13,11.40
2008,07,18,03,14,11.40
2008,07,18,03,15,11.40
2008,07,18,03,17,11.40
2008,07,18,03,18,11.40
2008,07,18,03,19,11.40
2008,07,18,03,20,11.40
2008,07,18,03,21,11.40
2008,07,18,03,22,11.40
2008,07,18,03,23,11.40
2008,07,18,03,24,11.40
2008,07,18,03,25,11.40
2008,07,18,03,26,11.40
2008,07,18,03,27,11.40
2008,07,18,03,28,11.40
2008,07,18,03,29,11.40
2008,07,18,03,30,11.40
2008,07,18,03,31,11.40
2008,07,18,03,32,11.40
2008,07,18,03,33,11.50
2008,07,18,03,34,11.50
2008,07,18,03,35,11.50
2008,07,18,03,36,11.60
2008,07,18,03,37,11.60
2008,07,18,03,38,11.60
2008,07,18,03,39,11.60
2008,07,18,03,40,11.60
2008,07,18,03,41,11.60
2008,07,18,03,42,11.60
2008,07,18,03,43,11.60
2008,07,18,03,44,11.60
2008,07,18,03,45,11.60
2008,07,18,03,46,11.60
2008,07,18,03,47,11.60
2008,07,18,03,48,11.60
2008,07,18,03,49,11.70
2008,07,18,03,50,11.70
2008,07,18,03,51,11.70
2008,07,18,03,52,11.70
2008,07,18,03,53,11.70
2008,07,18,03,54,11.70
2008,07,18,03,55,11.70
2008,07,18,03,56,11.70
2008,07,18,03,57,11.70
2008,07,18,03,58,11.70
2008,07,18,03,59,11.70
2008,07,18,04,00,11.70
2008,07,18,04,02,11.70
2008,07,18,04,03,11.70
2008,07,18,04,04,11.70
2008,07,18,04,05,11.70
2008,07,18,04,06,11.80
2008,07,18,04,07,11.80
2008,07,18,04,08,11.80
2008,07,18,04,09,11.80
2008,07,18,04,10,11.80
2008,07,18,04,11,11.80
2008,07,18,04,12,11.80
2008,07,18,04,13,11.80
2008,07,18,04,14,11.80
2008,07,18,04,15,11.80
2008,07,18,04,16,11.80
2008,07,18,04,17,11.80
2008,07,18,04,18,11.80
2008,07,18,04,19,11.80
2008,07,18,04,20,11.80
2008,07,18,04,21,11.80
2008,07,18,04,22,11.80
2008,07,18,04,23,11.80
2008,07,18,04,24,11.80
2008,07,18,04,25,11.90
2008,07,18,04,26,11.90
2008,07,18,04,27,11.90
2008,07,18,04,28,11.90
2008,07,18,04,29,11.90
2008,07,18,04,30,11.90
2008,07,18,04,31,11.90
2008,07,18,04,32,11.90
2008,07,18,04,33,11.90
2008,07,18,04,34,11.90
2008,07,18,04,35,11.90
2008,07,18,04,36,11.90
2008,07,18,04,37,11.90
2008,07,18,04,38,11.90
2008,07,18,04,39,11.90
2008,07,18,04,40,11.90
2008,07,18,04,41,11.90
2008,07,18,04,42,11.90
2008,07,18,04,43,11.90
2008,07,18,04,44,11.90
2008,07,18,04,45,11.90
2008,07,18,04,46,11.90
2008,07,18,04,47,11.90
2008,07,18,04,48,11.90
2008,07,18,04,49,11.90
2008,07,18,04,50,11.90
2008,07,18,04,51,11.90
2008,07,18,04,52,11.90
2008,07,18,04,53,11.90
2008,07,18,04,54,11.90
2008,07,18,04,55,11.90
2008,07,18,04,56,11.90
2008,07,18,04,57,11.90
2008,07,18,04,58,11.90
2008,07,18,04,59,11.90
2008,07,18,05,00,11.90
2008,07,18,05,01,11.90
2008,07,18,05,02,11.90
2008,07,18,05,03,11.90
2008,07,18,05,04,11.90
2008,07,18,05,05,11.90
2008,07,18,05,06,11.90
2008,07,18,05,07,11.90
2008,07,18,05,08,11.90
2008,07,18,05,09,11.90
2008,07,18,05,10,11.90
2008,07,18,05,11,11.90
2008,07,18,05,12,11.90
2008,07,18,05,13,11.90
2008,07,18,05,14,11.90
2008,07,18,05,15,11.90
2008,07,18,05,16,11.90
2008,07,18,05,17,11.90
2008,07,18,05,18,11.90
2008,07,18,05,19,11.90
2008,07,18,05,20,11.90
2008,07,18,05,21,11.90
2008,07,18,05,22,11.90
2008,07,18,05,23,11.90
2008,07,18,05,24,11.90
2008,07,18,05,25,11.90
2008,07,18,05,26,11.90
2008,07,18,05,27,11.90
2008,07,18,05,28,11.90
2008,07,18,05,29,11.90
2008,07,18,05,30,11.90
2008,07,18,05,31,11.90
2008,07,18,05,32,11.90
2008,07,18,05,33,11.90
2008,07,18,05,34,11.90
2008,07,18,05,35,11.90
2008,07,18,05,36,11.90
2008,07,18,05,37,11.90
2008,07,18,05,38,11.90
2008,07,18,05,39,11.90
2008,07,18,05,40,11.90
2008,07,18,05,41,11.90
2008,07,18,05,42,11.90
2008,07,18,05,43,11.90
2008,07,18,05,44,11.90
2008,07,18,05,45,11.90
2008,07,18,05,46,11.90
2008,07,18,05,47,11.90
2008,07,18,05,48,11.90
2008,07,18,05,49,11.90
2008,07,18,05,50,11.90
2008,07,18,05,51,11.90
2008,07,18,05,52,12.00
2008,07,18,05,53,12.00
2008,07,18,05,54,12.00
2008,07,18,05,55,11.90
2008,07,18,05,56,12.00
2008,07,18,05,57,12.00
2008,07,18,05,58,12.00
2008,07,18,05,59,12.00
2008,07,18,06,00,12.00
2008,07,18,06,01,12.00
2008,07,18,06,03,12.00
2008,07,18,06,04,12.00
2008,07,18,06,05,12.00
2008,07,18,06,06,12.00
2008,07,18,06,07,12.00
2008,07,18,06,08,12.00
2008,07,18,06,09,12.00
2008,07,18,06,10,12.00
2008,07,18,06,11,12.00
2008,07,18,06,12,12.00
2008,07,18,06,13,12.00
2008,07,18,06,14,12.00
2008,07,18,06,15,12.10
2008,07,18,06,16,12.00
2008,07,18,06,17,12.00
2008,07,18,06,18,12.00
2008,07,18,06,19,12.00
2008,07,18,06,20,12.10
2008,07,18,06,21,12.10
2008,07,18,06,22,12.10
2008,07,18,06,23,12.10
2008,07,18,06,24,12.10
2008,07,18,06,25,12.10
2008,07,18,06,26,12.10
2008,07,18,06,27,12.10
2008,07,18,06,28,12.10
2008,07,18,06,29,12.10
2008,07,18,06,30,12.10
2008,07,18,06,31,12.10
2008,07,18,06,32,12.10
2008,07,18,06,33,12.10
2008,07,18,06,34,12.10
2008,07,18,06,35,12.10
2008,07,18,06,36,12.10
2008,07,18,06,37,12.10
2008,07,18,06,38,12.10
2008,07,18,06,39,12.10
2008,07,18,06,40,12.10
2008,07,18,06,41,12.10
2008,07,18,06,42,12.10
2008,07,18,06,43,12.10
2008,07,18,06,44,12.10
2008,07,18,06,45,12.10
2008,07,18,06,46,12.10
2008,07,18,06,47,12.10
2008,07,18,06,48,12.10
2008,07,18,06,49,12.10
2008,07,18,06,50,12.10
2008,07,18,06,51,12.10
2008,07,18,06,52,12.10
2008,07,18,06,53,12.10
2008,07,18,06,54,12.10
2008,07,18,06,55,12.20
2008,07,18,06,56,12.20
2008,07,18,06,57,12.20
2008,07,18,06,58,12.20
2008,07,18,06,59,12.20
2008,07,18,07,00,12.20
2008,07,18,07,01,12.20
2008,07,18,07,02,12.30
2008,07,18,07,03,12.30
2008,07,18,07,04,12.30
2008,07,18,07,05,12.30
2008,07,18,07,06,12.30
2008,07,18,07,07,12.30
2008,07,18,07,08,12.40
2008,07,18,07,09,12.40
2008,07,18,07,10,12.40
2008,07,18,07,11,12.40
2008,07,18,07,12,12.40
2008,07,18,07,13,12.40
2008,07,18,07,14,12.40
2008,07,18,07,15,12.50
2008,07,18,07,16,12.50
2008,07,18,07,17,12.50
2008,07,18,07,18,12.60
2008,07,18,07,19,12.60
2008,07,18,07,20,12.60
2008,07,18,07,21,12.60
2008,07,18,07,22,12.70
2008,07,18,07,23,12.70
2008,07,18,07,24,12.70
2008,07,18,07,25,12.70
2008,07,18,07,26,12.70
2008,07,18,07,27,12.70
2008,07,18,07,28,12.70
2008,07,18,07,29,12.70
2008,07,18,07,30,12.70
2008,07,18,07,31,12.80
2008,07,18,07,32,12.80
2008,07,18,07,33,12.80
2008,07,18,07,34,12.80
2008,07,18,07,35,12.80
2008,07,18,07,36,12.80
2008,07,18,07,37,12.80
2008,07,18,07,38,12.80
2008,07,18,07,39,12.80
2008,07,18,07,40,12.80
2008,07,18,07,41,12.80
2008,07,18,07,42,12.80
2008,07,18,07,43,12.80
2008,07,18,07,44,12.90
2008,07,18,07,45,12.90
2008,07,18,07,46,12.90
2008,07,18,07,47,12.90
2008,07,18,07,48,12.90
2008,07,18,07,49,12.90
2008,07,18,07,50,12.90
2008,07,18,07,51,12.90
2008,07,18,07,52,13.00
2008,07,18,07,53,13.00
2008,07,18,07,54,13.00
2008,07,18,07,55,13.00
2008,07,18,07,56,13.10
2008,07,18,07,57,13.10
2008,07,18,07,58,13.10
2008,07,18,07,59,13.10
2008,07,18,08,00,13.10
2008,07,18,08,01,13.20
2008,07,18,08,02,13.20
2008,07,18,08,04,13.20
2008,07,18,08,05,13.20
2008,07,18,08,06,13.20
2008,07,18,08,07,13.20
2008,07,18,08,08,13.30
2008,07,18,08,09,13.30
2008,07,18,08,10,13.30
2008,07,18,08,11,13.30
2008,07,18,08,12,13.40
2008,07,18,08,13,13.40
2008,07,18,08,14,13.40
2008,07,18,08,15,13.40
2008,07,18,08,16,13.40
2008,07,18,08,17,13.50
2008,07,18,08,18,13.50
2008,07,18,08,19,13.50
2008,07,18,08,20,13.50
2008,07,18,08,21,13.60
2008,07,18,08,22,13.60
2008,07,18,08,23,13.60
2008,07,18,08,24,13.70
2008,07,18,08,25,13.70
2008,07,18,08,26,13.70
2008,07,18,08,27,13.80
2008,07,18,08,28,13.80
2008,07,18,08,29,13.90
2008,07,18,08,30,13.90
2008,07,18,08,31,14.00
2008,07,18,08,32,14.10
2008,07,18,08,33,14.10
2008,07,18,08,34,14.20
2008,07,18,08,35,14.20
2008,07,18,08,36,14.30
2008,07,18,08,37,14.30
2008,07,18,08,38,14.30
2008,07,18,08,39,14.30
2008,07,18,08,40,14.30
2008,07,18,08,41,14.30
2008,07,18,08,42,14.30
2008,07,18,08,43,14.30
2008,07,18,08,44,14.40
2008,07,18,08,45,14.40
2008,07,18,08,46,14.50
2008,07,18,08,47,14.60
2008,07,18,08,48,14.70
2008,07,18,08,49,14.70
2008,07,18,08,50,14.80
2008,07,18,08,51,14.80
2008,07,18,08,52,14.90
2008,07,18,08,53,15.00
2008,07,18,08,54,15.00
2008,07,18,08,55,15.00
2008,07,18,08,56,15.00
2008,07,18,08,57,15.00
2008,07,18,08,58,15.00
2008,07,18,08,59,15.00
2008,07,18,09,00,15.00
2008,07,18,09,01,15.00
2008,07,18,09,02,15.00
2008,07,18,09,03,15.10
2008,07,18,09,04,15.10
2008,07,18,09,05,15.10
2008,07,18,09,06,15.00
2008,07,18,09,07,15.00
2008,07,18,09,08,15.00
2008,07,18,09,09,14.90
2008,07,18,09,10,14.90
2008,07,18,09,11,14.90
2008,07,18,09,12,14.90
2008,07,18,09,13,14.90
2008,07,18,09,14,15.00
2008,07,18,09,15,14.90
2008,07,18,09,16,14.90
2008,07,18,09,17,15.00
2008,07,18,09,18,15.00
2008,07,18,09,19,14.90
2008,07,18,09,20,15.00
2008,07,18,09,21,15.00
2008,07,18,09,22,15.00
2008,07,18,09,23,15.00
2008,07,18,09,24,15.00
2008,07,18,09,25,15.10
2008,07,18,09,26,15.20
2008,07,18,09,27,15.30
2008,07,18,09,28,15.30
2008,07,18,09,29,15.40
2008,07,18,09,30,15.60
2008,07,18,09,31,15.60
2008,07,18,09,32,15.70
2008,07,18,09,33,15.80
2008,07,18,09,34,15.90
2008,07,18,09,35,16.10
2008,07,18,09,36,16.20
2008,07,18,09,37,16.30
2008,07,18,09,38,16.30
2008,07,18,09,39,16.40
2008,07,18,09,40,16.50
2008,07,18,09,41,16.40
2008,07,18,09,42,16.40
2008,07,18,09,43,16.40
2008,07,18,09,44,16.40
2008,07,18,09,45,16.40
2008,07,18,09,46,16.40
2008,07,18,09,47,16.40
2008,07,18,09,48,16.40
2008,07,18,09,49,16.40
2008,07,18,09,50,16.50
2008,07,18,09,51,16.50
2008,07,18,09,52,16.60
2008,07,18,09,53,16.60
2008,07,18,09,54,16.70
2008,07,18,09,55,16.80
2008,07,18,09,56,16.80
2008,07,18,09,57,16.80
2008,07,18,09,58,16.80
2008,07,18,09,59,16.90
2008,07,18,10,00,16.90
2008,07,18,10,01,17.00
2008,07,18,10,02,17.10
2008,07,18,10,03,17.10
2008,07,18,10,05,17.30
2008,07,18,10,06,17.30
2008,07,18,10,07,17.30
2008,07,18,10,08,17.40
2008,07,18,10,09,17.40
2008,07,18,10,10,17.50
2008,07,18,10,11,17.60
2008,07,18,10,12,17.70
2008,07,18,10,13,17.70
2008,07,18,10,14,17.80
2008,07,18,10,15,17.80
2008,07,18,10,16,17.90
2008,07,18,10,17,17.90
2008,07,18,10,18,18.00
2008,07,18,10,19,18.10
2008,07,18,10,20,18.10
2008,07,18,10,21,18.10
2008,07,18,10,22,18.10
2008,07,18,10,23,18.20
2008,07,18,10,24,18.20
2008,07,18,10,25,18.20
2008,07,18,10,26,18.20
2008,07,18,10,27,18.30
2008,07,18,10,28,18.30
2008,07,18,10,29,18.30
2008,07,18,10,30,18.40
2008,07,18,10,31,18.40
2008,07,18,10,32,18.40
2008,07,18,10,33,18.50
2008,07,18,10,34,18.60
2008,07,18,10,35,18.60
2008,07,18,10,36,18.60
2008,07,18,10,37,18.70
2008,07,18,10,38,18.70
2008,07,18,10,39,18.70
2008,07,18,10,40,18.80
2008,07,18,10,41,18.80
2008,07,18,10,42,18.80
2008,07,18,10,43,18.90
2008,07,18,10,44,18.90
2008,07,18,10,45,18.90
2008,07,18,10,46,19.00
2008,07,18,10,47,19.00
2008,07,18,10,48,19.10
2008,07,18,10,49,19.10
2008,07,18,10,50,19.10
2008,07,18,10,51,19.10
2008,07,18,10,52,19.10
2008,07,18,10,53,19.10
2008,07,18,10,54,19.10
2008,07,18,10,55,19.20
2008,07,18,10,56,19.20
2008,07,18,10,57,19.20
2008,07,18,10,58,19.20
2008,07,18,10,59,19.20
2008,07,18,11,00,19.20
2008,07,18,11,01,19.20
2008,07,18,11,02,19.20
2008,07,18,11,03,19.20
2008,07,18,11,04,19.30
2008,07,18,11,05,19.30
2008,07,18,11,06,19.30
2008,07,18,11,07,19.40
2008,07,18,11,08,19.40
2008,07,18,11,09,19.40
2008,07,18,11,10,19.40
2008,07,18,11,11,19.40
2008,07,18,11,12,19.40
2008,07,18,11,13,19.40
2008,07,18,11,14,19.30
2008,07,18,11,15,19.30
2008,07,18,11,16,19.30
2008,07,18,11,17,19.30
2008,07,18,11,18,19.30
2008,07,18,11,19,19.30
2008,07,18,11,20,19.40
2008,07,18,11,21,19.40
2008,07,18,11,22,19.40
2008,07,18,11,23,19.50
2008,07,18,11,24,19.50
2008,07,18,11,25,19.60
2008,07,18,11,26,19.60
2008,07,18,11,27,19.60
2008,07,18,11,28,19.60
2008,07,18,11,29,19.60
2008,07,18,11,30,19.70
2008,07,18,11,31,19.70
2008,07,18,11,32,19.80
2008,07,18,11,33,19.80
2008,07,18,11,34,19.80
2008,07,18,11,35,19.70
2008,07,18,11,36,19.70
2008,07,18,11,37,19.70
2008,07,18,11,38,19.70
2008,07,18,11,39,19.70
2008,07,18,11,40,19.80
2008,07,18,11,41,19.80
2008,07,18,11,42,19.90
2008,07,18,11,43,19.90
2008,07,18,11,44,20.00
2008,07,18,11,45,20.10
2008,07,18,11,46,20.10
2008,07,18,11,47,20.20
2008,07,18,11,48,20.30
2008,07,18,11,49,20.30
2008,07,18,11,50,20.40
2008,07,18,11,51,20.50
2008,07,18,11,52,20.60
2008,07,18,11,53,20.60
2008,07,18,11,54,20.70
2008,07,18,11,55,20.80
2008,07,18,11,56,20.80
2008,07,18,11,57,20.90
2008,07,18,11,58,21.00
2008,07,18,11,59,21.00
2008,07,18,12,00,21.00
2008,07,18,12,01,21.10
2008,07,18,12,02,21.10
2008,07,18,12,03,21.10
2008,07,18,12,04,21.00
2008,07,18,12,05,20.90
2008,07,18,12,06,20.80
2008,07,18,12,07,20.80
2008,07,18,12,08,20.80
2008,07,18,12,09,20.80
2008,07,18,12,10,20.80
2008,07,18,12,11,20.90
2008,07,18,12,12,20.90
2008,07,18,12,13,21.10
2008,07,18,12,14,21.10
2008,07,18,12,15,21.20
2008,07,18,12,16,21.30
2008,07,18,12,17,21.30
2008,07,18,12,18,21.40
2008,07,18,12,19,21.50
2008,07,18,12,20,21.60
2008,07,18,12,21,21.60
2008,07,18,12,22,21.70
2008,07,18,12,23,21.70
2008,07,18,12,24,21.70
2008,07,18,12,25,21.80
2008,07,18,12,26,21.80
2008,07,18,12,27,21.80
2008,07,18,12,28,21.90
2008,07,18,12,29,21.90
2008,07,18,12,30,21.90
2008,07,18,12,31,21.80
2008,07,18,12,32,21.90
2008,07,18,12,33,21.90
2008,07,18,12,34,21.90
2008,07,18,12,35,22.00
2008,07,18,12,36,22.10
2008,07,18,12,37,22.10
2008,07,18,12,38,22.20
2008,07,18,12,39,22.30
2008,07,18,12,40,22.30
2008,07,18,12,41,22.40
2008,07,18,12,42,22.40
2008,07,18,12,43,22.50
2008,07,18,12,44,22.60
2008,07,18,12,45,22.70
2008,07,18,12,46,22.70
2008,07,18,12,47,22.80
2008,07,18,12,48,22.80
2008,07,18,12,49,22.90
2008,07,18,12,50,23.00
2008,07,18,12,51,23.10
2008,07,18,12,52,23.20
2008,07,18,12,53,23.30
2008,07,18,12,54,23.30
2008,07,18,12,55,23.40
2008,07,18,12,56,23.50
2008,07,18,12,57,23.60
2008,07,18,12,58,23.60
2008,07,18,12,59,23.70
2008,07,18,13,00,23.70
2008,07,18,13,01,23.80
2008,07,18,13,02,23.90
2008,07,18,13,03,23.90
2008,07,18,13,04,24.00
2008,07,18,13,05,24.10
2008,07,18,13,06,24.10
2008,07,18,13,07,24.20
2008,07,18,13,08,24.20
2008,07,18,13,09,24.30
2008,07,18,13,10,24.30
2008,07,18,13,11,24.40
2008,07,18,13,12,24.40
2008,07,18,13,13,24.50
2008,07,18,13,14,24.60
2008,07,18,13,15,24.60
2008,07,18,13,16,24.60
2008,07,18,13,17,24.70
2008,07,18,13,18,24.70
2008,07,18,13,19,24.80
2008,07,18,13,20,24.80
2008,07,18,13,21,24.80
2008,07,18,13,22,24.90
2008,07,18,13,23,24.90
2008,07,18,13,24,24.90
2008,07,18,13,25,24.90
2008,07,18,13,26,25.00
2008,07,18,13,27,25.00
2008,07,18,13,28,25.10
2008,07,18,13,29,25.10
2008,07,18,13,30,25.20
2008,07,18,13,31,25.20
2008,07,18,13,32,25.30
2008,07,18,13,33,25.30
2008,07,18,13,34,25.40
2008,07,18,13,35,25.50
2008,07,18,13,36,25.60
2008,07,18,13,37,25.60
2008,07,18,13,38,25.70
2008,07,18,13,39,25.70
2008,07,18,13,40,25.70
2008,07,18,13,41,25.70
2008,07,18,13,42,25.80
2008,07,18,13,43,25.80
2008,07,18,13,44,25.80
2008,07,18,13,45,25.80
2008,07,18,13,46,25.70
2008,07,18,13,47,25.70
2008,07,18,13,48,25.70
2008,07,18,13,49,25.70
2008,07,18,13,50,25.60
2008,07,18,13,51,25.60
2008,07,18,13,52,25.60
2008,07,18,13,53,25.50
2008,07,18,13,54,25.50
2008,07,18,13,55,25.30
2008,07,18,13,56,25.30
2008,07,18,13,57,25.20
2008,07,18,13,58,25.20
2008,07,18,13,59,25.10
2008,07,18,14,00,25.10
2008,07,18,14,01,25.10
2008,07,18,14,02,25.10
2008,07,18,14,03,25.10
2008,07,18,14,04,25.20
2008,07,18,14,05,25.20
2008,07,18,14,06,25.30
2008,07,18,14,07,25.30
2008,07,18,14,08,25.30
2008,07,18,14,09,25.30
2008,07,18,14,10,25.30
2008,07,18,14,11,25.30
2008,07,18,14,12,25.30
2008,07,18,14,13,25.30
2008,07,18,14,14,25.30
2008,07,18,14,15,25.30
2008,07,18,14,16,25.30
2008,07,18,14,17,25.30
2008,07,18,14,18,25.30
2008,07,18,14,19,25.30
2008,07,18,14,20,25.30
2008,07,18,14,21,25.30
2008,07,18,14,22,25.30
2008,07,18,14,23,25.30
2008,07,18,14,24,25.30
2008,07,18,14,25,25.20
2008,07,18,14,26,25.20
2008,07,18,14,27,25.20
2008,07,18,14,28,25.30
2008,07,18,14,29,25.30
2008,07,18,14,30,25.30
2008,07,18,14,31,25.30
2008,07,18,14,32,25.40
2008,07,18,14,33,25.40
2008,07,18,14,34,25.40
2008,07,18,14,35,25.30
2008,07,18,14,36,25.30
2008,07,18,14,37,25.40
2008,07,18,14,38,25.40
2008,07,18,14,39,25.40
2008,07,18,14,40,25.50
2008,07,18,14,41,25.60
2008,07,18,14,42,25.60
2008,07,18,14,43,25.70
2008,07,18,14,44,25.70
2008,07,18,14,45,25.70
2008,07,18,14,46,25.70
2008,07,18,14,47,25.70
2008,07,18,14,48,25.80
2008,07,18,14,49,25.80
2008,07,18,14,50,25.80
2008,07,18,14,51,25.60
2008,07,18,14,52,25.50
2008,07,18,14,53,25.40
2008,07,18,14,54,25.40
2008,07,18,14,55,25.50
2008,07,18,14,56,25.40
2008,07,18,14,57,25.40
2008,07,18,14,58,25.50
2008,07,18,14,59,25.50
2008,07,18,15,00,25.60
2008,07,18,15,01,25.60
2008,07,18,15,02,25.60
2008,07,18,15,03,25.70
2008,07,18,15,04,25.70
2008,07,18,15,05,25.70
2008,07,18,15,06,25.80
2008,07,18,15,07,25.80
2008,07,18,15,08,25.80
2008,07,18,15,09,25.80
2008,07,18,15,10,25.90
2008,07,18,15,11,25.90
2008,07,18,15,12,25.90
2008,07,18,15,13,25.90
2008,07,18,15,15,26.00
2008,07,18,15,16,26.10
2008,07,18,15,17,26.10
2008,07,18,15,18,26.10
2008,07,18,15,19,26.10
2008,07,18,15,20,26.10
2008,07,18,15,21,26.20
2008,07,18,15,22,26.20
2008,07,18,15,23,26.20
2008,07,18,15,24,26.20
2008,07,18,15,25,26.20
2008,07,18,15,26,26.20
2008,07,18,15,27,26.20
2008,07,18,15,28,26.20
2008,07,18,15,29,26.20
2008,07,18,15,30,26.20
2008,07,18,15,31,26.20
2008,07,18,15,32,26.10
2008,07,18,15,33,26.10
2008,07,18,15,34,26.10
2008,07,18,15,35,26.00
2008,07,18,15,36,26.00
2008,07,18,15,37,26.00
2008,07,18,15,38,25.90
2008,07,18,15,39,25.90
2008,07,18,15,40,25.90
2008,07,18,15,41,25.90
2008,07,18,15,42,25.90
2008,07,18,15,43,25.90
2008,07,18,15,44,25.90
2008,07,18,15,45,25.90
2008,07,18,15,46,25.90
2008,07,18,15,47,25.90
2008,07,18,15,48,25.90
2008,07,18,15,49,25.90
2008,07,18,15,50,25.90
2008,07,18,15,51,25.90
2008,07,18,15,52,25.90
2008,07,18,15,53,25.90
2008,07,18,15,54,25.90
2008,07,18,15,55,25.90
2008,07,18,15,56,25.90
2008,07,18,15,57,25.90
2008,07,18,15,58,25.90
2008,07,18,15,59,26.00
2008,07,18,16,00,26.00
2008,07,18,16,01,26.10
2008,07,18,16,02,26.10
2008,07,18,16,03,26.10
2008,07,18,16,04,26.00
2008,07,18,16,05,26.00
2008,07,18,16,06,26.00
2008,07,18,16,07,26.00
2008,07,18,16,08,26.00
2008,07,18,16,09,26.00
2008,07,18,16,10,26.00
2008,07,18,16,11,26.00
2008,07,18,16,12,26.00
2008,07,18,16,13,26.00
2008,07,18,16,14,26.00
2008,07,18,16,15,26.00
2008,07,18,16,16,26.00
2008,07,18,16,17,25.90
2008,07,18,16,18,25.90
2008,07,18,16,19,25.90
2008,07,18,16,20,25.90
2008,07,18,16,21,25.90
2008,07,18,16,22,25.90
2008,07,18,16,23,25.90
2008,07,18,16,24,25.90
2008,07,18,16,25,25.90
2008,07,18,16,26,26.00
2008,07,18,16,27,26.00
2008,07,18,16,28,26.00
2008,07,18,16,29,26.10
2008,07,18,16,30,26.10
2008,07,18,16,31,26.10
2008,07,18,16,32,26.10
2008,07,18,16,33,26.20
2008,07,18,16,34,26.20
2008,07,18,16,35,26.20
2008,07,18,16,36,26.20
2008,07,18,16,37,26.20
2008,07,18,16,38,26.30
2008,07,18,16,39,26.30
2008,07,18,16,40,26.30
2008,07,18,16,41,26.20
2008,07,18,16,42,26.20
2008,07,18,16,43,26.20
2008,07,18,16,44,26.20
2008,07,18,16,45,26.10
2008,07,18,16,46,26.10
2008,07,18,16,47,26.10
2008,07,18,16,48,26.10
2008,07,18,16,49,26.00
2008,07,18,16,50,25.90
2008,07,18,16,51,25.90
2008,07,18,16,52,25.90
2008,07,18,16,53,25.90
2008,07,18,16,54,25.90
2008,07,18,16,55,25.90
2008,07,18,16,56,25.90
2008,07,18,16,57,25.80
2008,07,18,16,58,25.80
2008,07,18,16,59,25.80
2008,07,18,17,00,25.80
2008,07,18,17,01,25.80
2008,07,18,17,02,25.80
2008,07,18,17,03,25.80
2008,07,18,17,04,25.90
2008,07,18,17,05,25.90
2008,07,18,17,06,25.90
2008,07,18,17,07,25.90
2008,07,18,17,08,25.90
2008,07,18,17,09,25.90
2008,07,18,17,10,25.90
2008,07,18,17,11,25.90
2008,07,18,17,12,26.00
2008,07,18,17,13,26.00
2008,07,18,17,14,26.00
2008,07,18,17,15,26.00
2008,07,18,17,16,26.00
2008,07,18,17,17,26.00
2008,07,18,17,18,25.90
2008,07,18,17,19,25.90
2008,07,18,17,20,25.90
2008,07,18,17,21,25.80
2008,07,18,17,22,25.80
2008,07,18,17,23,25.80
2008,07,18,17,24,25.80
2008,07,18,17,25,25.80
2008,07,18,17,26,25.80
2008,07,18,17,27,25.80
2008,07,18,17,28,25.70
2008,07,18,17,29,25.70
2008,07,18,17,30,25.70
2008,07,18,17,31,25.60